Torna al catalogo

STARLINK-11089

AttivoComunicazioniVLEO
NORAD 59426·PAYLOAD·🇺🇸 United States

Lanciato Apr 7, 2024 da Vandenberg Space Force Base

Loading…

Prossimi Passaggi (prossime 24 ore)

TLE

AggiornatoSource: CelesTrak SupGP

Epoca: Sep 15, 2026, 02:37 UTC

1 59426C 24065F   26258.10951389 -.00054573  00000+0 -44922-3 0  2589
2 59426  53.1575 240.3194 0001176  89.8337 176.2172 15.69753640    13

Traccia STARLINK-11089 in tempo reale con AllMySat

Download on the App Store